Flag for Canada Weather past 2 weeks in Barrie, Ontario, Canada

Now
59 °F

More clouds than sun.


Feels Like: 57 °F
Forecast: 56 / 66 °F
Wind: 12 mph from North

Location: Borden

Current Time: Jul 28, 2014 at 10:56:53 AM

Latest Report: Jul 28, 2014 at 10:00 AM


Visibility: 9 mi

Pressure: 29.77 "Hg

Humidity: 82%

Dew point: 54 °F

Location of BarrieLocation

Historic Weather in Barrie — Graph

°F

Barrie temperature yesterday

Maximum temperature yesterday: 81 °F (at 3:00 PM)
Minimum temperature yesterday: 64 °F (at 3:00 AM)
Average temperature yesterday: 70 °F

Past Weeks' High & Low Weather Summary

 TemperatureHumidityPressure
High86 °F (Jul 22, 1:00 PM)100% (Jul 22, 2:01 AM)30.25 "Hg (Jul 22, 2:01 AM)
Low43 °F (Jul 17, 3:00 AM)40% (Jul 24, 5:00 PM)29.64 "Hg (Jul 27, 7:00 PM)
Average65 °F75%29.95 "Hg
* Reported Jul 13 9:00 AM — Jul 28 9:00 AM, Barrie, Weather by CustomWeather, © 2014

Note: Actual official high and low records may vary slightly from our data, if they occured in-between our weather recording intervals... More about our weather records

Advertising

Barrie weather history for previous 24 hours

 ConditionsComfort  
Time TempWeatherWind HumidityBarometerVisibility
9:00 AM
Jul 28
57 °FOvercast.9 mph94%29.75 "Hg9 mi
8:00 AM57 °FOvercast.9 mph94%29.74 "Hg9 mi
7:00 AM57 °FPassing clouds.9 mph100%29.73 "Hg6 mi
6:53 AM57 °FOvercast.13 mph100%29.72 "Hg7 mi
6:02 AM59 °FMostly cloudy.8 mph100%29.71 "Hg6 mi
5:00 AM59 °FOvercast.6 mph100%29.68 "Hg5 mi
4:00 AM61 °FOvercast.8 mph100%29.65 "Hg4 mi
3:04 AM63 °FLow clouds.12 mph100%29.64 "Hg2 mi
2:56 AM63 °FLow clouds.8 mph100%29.64 "Hg2 mi
2:00 AM64 °FHeavy rain. Dense fog.2 mph100%29.64 "Hg1 mi
1:58 AM64 °FHeavy rain. Dense fog.No wind100%29.64 "Hg1 mi
1:00 AM63 °FLight rain. Overcast.3 mph100%29.65 "Hg4 mi
12:02 AM64 °FLight rain. Overcast.No wind94%29.67 "Hg3 mi
11:00 PM
Jul 27
64 °FRain. Mostly cloudy.3 mph100%29.68 "Hg3 mi
10:00 PM64 °FLight rain. Passing clouds.3 mph94%29.67 "Hg9 mi
9:00 PM66 °FLight rain. Mostly cloudy.5 mph88%29.66 "Hg9 mi
8:48 PM66 °FLight rain. Mostly cloudy.5 mph88%29.65 "Hg9 mi
8:00 PM68 °FPartly sunny.9 mph83%29.66 "Hg9 mi
7:00 PM70 °FSunny.7 mph78%29.64 "Hg9 mi
6:00 PM72 °FSunny.12 mph73%29.64 "Hg9 mi
5:00 PM77 °FSunny.12 mph65%29.65 "Hg9 mi
4:00 PM79 °FSunny.10 mph65%29.65 "Hg9 mi
3:00 PM81 °FPartly sunny.2 mph51%29.66 "Hg9 mi
2:00 PM79 °FPartly sunny.2 mph54%29.67 "Hg9 mi
1:00 PM79 °FPartly sunny.9 mph58%29.68 "Hg9 mi
12:04 PM75 °FPartly sunny.No wind65%29.70 "Hg9 mi
12:00 PM75 °FPartly sunny.5 mph65%29.69 "Hg9 mi
11:00 AM75 °FPartly sunny.12 mph65%29.69 "Hg9 mi
10:00 AM72 °FBroken clouds.13 mph73%29.69 "Hg9 mi
Weather by CustomWeather, © 2014

See weather overviewHow to use our weather pages